LFSB

Basel/Mulhouse/Freiburg

Airport
ICAO code
LFSB
Summary
ICAO Region
EUR
ICAO Territory
Location

Saint-Louis, Alsace,

Coordinates
47° 35' 24" N , 7° 31' 45" E
KCC
Metar
LFSB 260100Z AUTO 19004KT 150V220 CAVOK 07/05 Q0997 TEMPO 4000 -RA

Description

EuroAirport Basel-Mulhouse-Freiburg is an international airport 6 km northwest of Basel (Switzerland), 22 km southeast of Mulhouse (France), and 70 km south of Freiburg (Germany). It is located in France, on the administrative territory of the commune of Saint-Louis near the Swiss and German borders.

Climatology

Temperate Marine climate/Oceanic climate (Köppen climate classification Cfb). Moderately cool summer and comparatively warm winter. Prevailing south-westerly winds from the Atlantic Ocean.

Runways

Designator Length Width Surface Rops
8/26 1819 60 CON Yes/Yes
15/33 3900 60 CON Yes/Yes

SKYbrary Partners:

Safety knowledge contributed by: